Location: Unspecified
(38.9820°N, 94.4650°W)
Time: 21:17:11
(UTC-05:00)

Resurs 1-4 Rocket - Visible Passes

Search period start: 01 August 2015 00:00
Search period end: 11 August 2015 00:00
Orbit: 800 x 815 km, 98.4° (Epoch: 31 July)

Date Brightness Start Highest point End Pass type
(mag) Time Alt. Az. Time Alt. Az. Time Alt. Az.
01 Aug 4.6 03:21:58 10° ENE 03:24:19 13° E 03:26:57 10° ESE visible
01 Aug 2.1 04:59:33 10° N 05:04:47 68° WNW 05:09:30 13° SSW visible
02 Aug 2.3 04:35:03 10° NNE 04:40:19 71° E 04:44:38 15° S visible
03 Aug 3.1 04:10:48 10° NNE 04:15:44 41° E 04:19:47 15° SSE visible
03 Aug 3.4 05:51:14 10° NNW 05:55:24 24° WNW 05:59:25 10° WSW visible
04 Aug 4.0 03:46:52 10° NE 03:51:03 24° E 03:54:55 12° SE visible
04 Aug 2.7 05:26:13 10° N 05:31:04 38° WNW 05:35:52 10° SW visible
05 Aug 4.5 03:23:39 10° ENE 03:26:14 14° E 03:29:07 10° ESE visible
05 Aug 2.1 05:01:27 10° N 05:06:40 65° WNW 05:11:08 14° SSW visible
06 Aug 2.2 04:36:56 10° NNE 04:42:11 75° ESE 04:46:17 17° S visible
07 Aug 3.0 04:12:38 10° NNE 04:17:38 43° E 04:21:25 17° SSE visible
08 Aug 3.9 03:48:40 10° NE 03:52:57 26° E 03:56:33 13° SE visible
08 Aug 2.8 05:28:08 10° N 05:32:56 37° WNW 05:37:38 10° SW visible
09 Aug 4.5 03:25:21 10° ENE 03:28:09 15° E 03:31:14 10° SE visible
09 Aug 2.2 05:03:21 10° N 05:08:33 62° WNW 05:12:46 15° SSW visible
10 Aug 2.1 04:38:48 10° NNE 04:44:05 79° ESE 04:47:54 19° S visible
